Location: Hilton Head Island
(32.2163°N, 80.7526°W)
Time: 08:57:51
(UTC-04:00)

Vanguard 1 - Pass Details

Date: 19 February 2026
Orbit: 653 x 3818 km, 34.2° (Epoch: 17 March)

Event Time Altitude Azimuth Distance (km) Brightness Sun altitude
Rises 17:16:46 0° 271° (W) 4,942 15.1 10.5°
Reaches altitude 10° 17:19:24 10° 272° (W) 4,265 14.9 10.0°
Maximum altitude 17:32:11 83° 2° (N) 2,833 12.5 7.4°
Drops below altitude 10° 17:54:24 10° 92° (E) 6,850 13.8 2.9°
Sets 18:00:02 0° 93° (E) 7,954 14.1 1.8°
